McAlester, OK

6:34 PM CST on February 26, 2017 (GMT -0600)
McAlester Regional

Weather History for KMLC - August, 2014

Change the Weather History Date:

Thursday, August 21, 2014

  Actual Average Record
Temperature  
Mean Temperature 84 °F -  
Max Temperature 93 °F 94 °F 105 °F (1993)
Min Temperature 77 °F 71 °F 56 °F (1956)
Cooling Degree Days 19    
Growing Degree Days 34 (Base 50)    
Moisture  
Dew Point 72 °F    
Average Humidity 66    
Maximum Humidity 84    
Minimum Humidity 50    
Precipitation  
Precipitation 0.00 in - - ()
Sea Level Pressure  
Sea Level Pressure 29.97 in    
Wind  
Wind Speed 10 mph (South)    
Max Wind Speed 15 mph    
Max Gust Speed 26 mph    
Visibility 10 miles    
Events      
Averages and records for this station are not official NWS values.
T = Trace of Precipitation, MM = Missing Value Source: NWS Daily Summary

Daily Weather History Graph

Daily Weather History Graph

Search for Another Location

Airport or City:

Trip Planner

Search our weather history database for the weather conditions in past years. The results will help you decide how hot, cold, wet, or windy it might be!

Date:

Astronomy

Aug. 21, 2014 Rise Set
Actual Time 6:47 AM CDT 8:04 PM CDT
Civil Twilight 6:21 AM CDT 8:30 PM CDT
Nautical Twilight 5:49 AM CDT 9:01 PM CDT
Astronomical Twilight 5:17 AM CDT 9:34 PM CDT
Moon 3:22 AM CDT (8/21) 5:30 PM CDT (8/21)
Length of Visible Light 14h 08m
Length of Day
13h 16m
Waning Crescent, 13% of the Moon is Illuminated
Aug 21
Waning Crescent
Aug 25
New
Sep 2
First Quarter
Sep 8
Full
Sep 15
Last Quarter

Hourly Weather History & Observations

Time (CDT) Temp. Heat Index Dew Point Humidity Pressure Visibility Wind Dir Wind Speed Gust Speed Precip Events Conditions
12:53 AM 82.9 °F 87.0 °F 70.0 °F 65% 29.95 in 10.0 mi South 11.5 mph 18.4 mph N/A   Clear
1:53 AM 81.0 °F 84.4 °F 70.0 °F 69% 29.94 in 10.0 mi South 8.1 mph - N/A   Clear
2:53 AM 80.1 °F 83.2 °F 70.0 °F 71% 29.93 in 10.0 mi South 8.1 mph - N/A   Clear
3:53 AM 79.0 °F - 71.1 °F 77% 29.94 in 10.0 mi South 11.5 mph 20.7 mph N/A   Clear
4:53 AM 78.1 °F - 71.1 °F 79% 29.96 in 10.0 mi South 8.1 mph - N/A   Clear
5:53 AM 78.1 °F - 71.1 °F 79% 29.96 in 10.0 mi South 8.1 mph - N/A   Scattered Clouds
6:53 AM 77.0 °F - 72.0 °F 84% 29.99 in 10.0 mi South 8.1 mph - N/A   Clear
7:53 AM 77.0 °F - 72.0 °F 84% 30.00 in 10.0 mi South 6.9 mph - N/A   Clear
8:53 AM 80.1 °F 84.2 °F 73.0 °F 79% 30.00 in 10.0 mi South 10.4 mph 17.3 mph N/A   Partly Cloudy
9:53 AM 82.9 °F 88.0 °F 72.0 °F 69% 30.00 in 10.0 mi SSW 13.8 mph 20.7 mph N/A   Clear
10:53 AM 84.9 °F 91.4 °F 73.0 °F 67% 30.01 in 10.0 mi SSW 15.0 mph 20.7 mph N/A   Clear
11:53 AM 87.1 °F 94.5 °F 73.0 °F 63% 30.01 in 10.0 mi South 8.1 mph - N/A   Partly Cloudy
12:53 PM 89.1 °F 97.0 °F 73.0 °F 59% 30.00 in 10.0 mi South 12.7 mph 19.6 mph N/A   Clear
1:53 PM 90.0 °F 97.9 °F 73.0 °F 57% 29.98 in 10.0 mi South 9.2 mph 21.9 mph N/A   Partly Cloudy
2:53 PM 91.0 °F 99.3 °F 73.0 °F 55% 29.97 in 10.0 mi South 9.2 mph 18.4 mph N/A   Partly Cloudy
3:53 PM 91.9 °F 98.4 °F 71.1 °F 50% 29.95 in 10.0 mi South 9.2 mph 26.5 mph N/A   Partly Cloudy
4:53 PM 91.9 °F 98.4 °F 71.1 °F 50% 29.94 in 10.0 mi South 9.2 mph 19.6 mph N/A   Clear
5:53 PM 91.0 °F 99.3 °F 73.0 °F 55% 29.94 in 10.0 mi South 10.4 mph 16.1 mph N/A   Clear
6:53 PM 90.0 °F 97.9 °F 73.0 °F 57% 29.93 in 10.0 mi SSE 9.2 mph 16.1 mph N/A   Clear
7:53 PM 87.1 °F 93.6 °F 72.0 °F 61% 29.94 in 10.0 mi Variable 5.8 mph - N/A   Clear
8:53 PM 84.9 °F 90.7 °F 72.0 °F 65% 29.95 in 10.0 mi SE 6.9 mph - N/A   Clear
9:53 PM 84.9 °F 89.4 °F 70.0 °F 61% 29.96 in 10.0 mi SSE 6.9 mph - N/A   Clear
10:53 PM 84.9 °F 88.8 °F 69.1 °F 59% 29.96 in 10.0 mi South 6.9 mph - N/A   Clear
11:53 PM 84.2 °F 87.3 °F 68.0 °F 58% 29.99 in 10.0 mi South 5.8 mph - N/A   Clear